GFSNIL_sfc_rhum_057.txt.gz
RH
69 69 66 68 63 66 66 61 62 73 73 73 71 72 76 79 82 83 86 83 89 94
69 68 67 66 68 65 65 67 69 67 68 67 68 70 69 76 80 87 88 94 95 96
69 66 66 67 70 70 67 67 68 68 65 63 65 66 72 76 80 90 93 94 96 92
71 70 71 70 70 69 70 68 69 66 66 66 69 73 77 79 82 92 91 89 90 85
74 72 74 74 72 73 73 71 69 69 70 70 72 79 81 85 88 94 96 93 94 89
77 76 76 76 74 74 74 76 75 74 75 77 79 85 93 90 93 94 94 94 93 89
74 73 73 71 72 73 71 75 72 74 74 76 76 82 89 95 96 94 94 95 94 90
69 68 67 70 72 72 73 75 72 75 78 78 78 81 86 92 94 96 97 97 92 87
62 65 69 68 70 72 73 74 74 77 79 87 89 100 100 98 97 97 95 96 94 96
64 65 68 67 67 70 74 75 77 82 85 88 89 100 100 100 97 97 94 96 97 98
69 68 66 67 69 72 76 80 84 88 90 96 98 100 100 100 97 97 96 96 96 96
71 71 72 76 78 82 97 99 99 99 99 99 99 100 100 97 98 98 98 94 92 90
73 77 88 96 98 99 99 99 98 99 98 99 98 99 98 93 94 97 96 92 93 91
94 97 98 98 97 96 96 96 97 97 98 98 97 98 95 92 91 92 94 92 90 82

GFSNIL_sfc_rhum_060.txt.gz
RH
69 63 72 75 71 70 65 58 69 74 60 52 61 61 57 58 58 61 65 69 69 58
69 65 61 60 68 66 63 62 70 72 71 61 56 60 57 58 60 63 66 66 65 63
63 58 56 57 59 57 54 55 56 58 61 59 56 56 57 59 58 61 61 59 62 64
57 57 57 56 55 56 57 54 54 54 54 52 51 52 53 54 52 53 57 63 68 72
60 57 59 60 58 61 59 58 56 55 55 54 52 53 54 56 52 56 59 65 76 80
63 62 61 62 61 59 60 59 57 55 58 58 58 56 56 56 60 64 71 82 87 91
60 62 61 60 61 62 58 59 56 57 57 61 56 55 54 58 71 78 86 87 89 90
57 58 57 58 58 58 61 59 58 60 60 62 64 58 62 67 75 84 84 85 91 93
51 54 57 55 58 59 59 58 58 59 60 63 59 78 89 84 72 80 84 88 93 90
49 52 54 54 54 56 60 61 60 59 59 63 65 92 100 100 79 86 89 92 96 98
49 51 51 54 56 58 60 63 64 65 64 74 74 97 100 100 96 94 97 97 97 98
50 51 52 55 58 59 62 64 70 69 68 75 85 100 100 100 99 99 99 99 98 97
48 53 54 57 62 65 67 75 94 97 98 99 98 100 100 99 98 98 98 97 98 95
51 56 58 70 84 91 97 97 98 97 97 97 98 98 97 95 95 96 96 96 97 98

GFSNIL_sfc_rhum_063.txt.gz
RH
76 72 65 70 68 72 68 63 68 71 68 65 65 74 72 66 64 66 70 72 70 68
79 77 72 66 70 72 65 58 64 66 67 64 64 64 62 62 64 63 71 70 71 69
77 72 72 68 71 68 64 60 60 63 67 65 63 61 57 58 57 64 64 62 67 68
72 67 73 67 64 64 62 60 59 60 62 60 59 58 61 58 57 59 62 62 64 66
64 65 69 65 62 62 60 57 54 55 55 53 54 56 58 58 53 58 60 61 63 62
59 59 62 61 59 57 58 57 54 53 53 51 53 54 55 55 56 57 57 57 59 59
56 57 57 56 57 58 55 56 57 60 56 56 53 52 54 54 58 59 57 60 60 59
52 54 54 56 56 57 59 55 55 57 59 58 56 53 59 58 61 61 62 64 61 69
46 49 54 55 58 60 61 58 59 59 59 61 52 68 78 71 61 59 60 67 70 80
45 47 52 54 52 56 60 61 61 61 60 63 63 80 84 86 63 65 66 72 79 80
45 47 48 52 54 57 59 61 63 62 61 62 58 83 87 91 78 74 72 72 74 82
42 44 45 50 55 56 58 61 62 60 63 65 64 99 99 99 92 94 98 99 99 99
36 40 44 50 56 58 58 61 63 81 92 98 95 99 100 100 99 99 99 98 98 98
37 42 46 51 53 60 76 92 96 96 97 96 97 97 97 97 98 98 97 97 97 98

GFSNIL_sfc_rhum_066.txt.gz
RH
74 72 71 75 69 73 72 66 62 76 82 84 75 78 85 84 85 88 88 80 81 81
79 74 73 74 74 72 68 66 70 80 83 85 84 76 68 74 76 76 78 77 83 77
81 77 75 72 73 73 72 68 64 73 78 77 79 75 73 75 71 71 72 72 72 73
82 79 77 76 72 71 73 71 67 66 71 74 75 72 70 71 66 70 69 64 68 74
77 79 81 79 74 73 74 71 68 65 66 68 71 70 72 73 64 66 66 65 68 69
78 77 78 78 76 73 73 73 70 64 66 67 71 70 68 68 66 63 61 63 67 69
71 75 74 72 75 74 70 71 69 67 65 65 65 63 63 63 65 65 63 64 65 66
63 67 69 72 72 72 70 67 66 67 66 64 62 59 63 60 63 66 66 67 65 66
52 58 63 64 68 69 70 67 67 67 67 68 58 71 79 72 64 65 68 71 70 69
50 52 59 62 63 65 68 69 69 68 68 68 69 82 83 85 68 69 72 74 75 74
51 51 52 58 61 65 68 71 72 71 70 72 68 88 91 89 82 75 73 75 78 84
48 50 52 56 60 64 67 70 70 69 74 76 78 98 100 93 84 82 95 96 98 99
77 48 51 57 62 65 66 68 77 94 95 98 97 99 100 100 99 99 99 98 98 98
79 78 87 76 82 76 94 96 98 97 98 96 97 98 98 98 99 98 97 97 98 98

GFSNIL_sfc_rhum_069.txt.gz
RH
75 83 80 77 81 80 79 76 70 90 89 85 85 89 91 92 94 93 94 95 97 94
76 76 79 76 71 73 72 71 72 76 87 87 83 86 90 91 88 85 85 87 92 92
78 75 74 75 72 69 70 68 67 70 78 84 82 80 80 80 80 81 82 79 78 76
81 78 75 74 77 73 71 71 68 69 76 79 80 82 82 78 74 75 74 72 74 78
81 81 81 77 74 76 75 74 72 70 70 71 74 75 77 75 72 78 78 73 74 75
82 83 81 81 80 73 74 73 74 74 70 69 74 76 75 74 74 74 75 72 73 72
83 82 81 77 76 78 74 74 77 76 75 72 70 71 74 75 77 77 75 74 75 73
84 80 79 80 77 80 79 76 77 79 77 74 70 67 73 75 77 78 79 77 73 71
72 80 83 81 81 80 83 79 77 79 80 81 71 78 85 82 76 74 76 77 74 71
71 74 78 79 80 80 80 83 82 79 78 78 76 85 86 87 70 71 72 73 74 74
83 83 72 74 76 78 80 82 81 79 76 76 74 88 87 88 81 74 71 72 76 78
81 85 85 84 72 71 74 76 77 76 80 79 79 99 100 100 91 83 93 96 97 98
78 82 87 92 97 81 77 78 88 94 95 97 97 98 99 100 98 99 99 98 98 99
79 80 84 89 92 96 98 98 98 98 98 97 98 98 97 98 99 98 98 98 98 98

GFSNIL_sfc_rhum_075.txt.gz
RH
94 86 85 87 89 91 89 86 86 89 91 89 90 93 95 96 95 95 97 93 87 90
92 89 86 92 90 86 86 82 81 84 87 88 86 90 93 93 91 91 91 90 86 81
93 91 93 95 96 91 88 83 89 85 84 90 87 86 87 86 83 88 87 83 81 84
95 91 85 89 92 94 94 93 91 83 81 82 85 81 81 78 79 87 83 82 85 83
94 86 85 85 88 88 90 92 87 88 81 79 81 80 81 81 77 84 80 80 84 84
95 93 88 83 83 83 84 84 83 83 84 83 80 82 85 80 78 77 79 79 82 82
96 94 92 88 85 83 82 81 77 76 76 78 79 78 77 78 82 80 79 80 80 78
96 95 94 94 91 87 86 83 81 79 78 76 74 73 77 77 80 82 84 83 83 82
80 83 91 92 92 92 91 86 85 85 84 83 78 84 89 83 75 74 79 83 82 81
80 83 81 80 84 91 91 88 89 88 85 86 84 95 93 93 79 76 76 77 79 79
78 78 80 82 86 87 90 94 93 90 88 88 85 99 98 98 87 83 80 78 79 82
76 78 82 87 88 89 92 94 92 95 94 95 94 96 95 97 98 91 88 85 93 97
73 77 83 87 89 89 89 89 86 89 91 93 92 97 95 95 98 99 99 98 98 99
75 76 80 82 84 86 88 88 91 91 93 92 95 95 93 94 96 96 96 96 96 96